Location: Newark
(50.7115°N, 3.8495°W)
Time: 04:16:15
(UTC+00:00)

N. Korean satellite - Visible Passes

Search period start: 16 October 2019 00:00
Search period end: 26 October 2019 00:00
Orbit: 455 x 508 km, 97.2° (Epoch: 15 October)

Date Brightness Start Highest point End Pass type
(mag) Time Alt. Az. Time Alt. Az. Time Alt. Az.
17 Oct 7.6 06:03:55 10° NNE 06:07:25 53° E 06:10:59 10° S visible
17 Oct 10.0 18:18:48 10° SW 18:21:02 16° W 18:23:18 10° NW visible
18 Oct 9.0 05:38:54 10° NE 05:42:02 28° E 05:45:11 10° SSE visible
18 Oct 8.8 17:52:30 10° SSW 17:55:34 30° W 17:58:39 10° NNW visible
19 Oct 10.0 05:14:19 10° NE 05:16:33 15° E 05:18:47 10° SE visible
20 Oct 10.5 18:37:55 10° W 18:38:42 11° W 18:39:31 10° WNW visible
21 Oct 8.0 05:56:09 10° NNE 05:59:37 43° E 06:03:07 10° S visible
21 Oct 9.7 18:10:35 10° SW 18:13:09 20° W 18:15:46 10° NW visible
22 Oct 9.4 05:31:13 10° NE 05:34:12 23° E 05:37:11 10° SSE visible
22 Oct 8.3 17:44:29 10° SSW 17:47:41 37° W 17:50:57 10° NNW visible
23 Oct 10.2 05:06:52 10° ENE 05:08:40 13° E 05:10:29 10° ESE visible
24 Oct 7.0 06:13:30 10° NNE 06:17:08 70° E 06:20:48 10° S visible
24 Oct 10.1 18:29:06 10° WSW 18:30:47 13° W 18:32:28 10° WNW visible
25 Oct 8.5 05:48:21 10° NNE 05:51:46 36° E 05:55:11 10° SSE visible
25 Oct 9.3 18:02:23 10° SSW 18:05:14 24° W 18:08:08 10° NW visible
